sat.trackr.live / text

‹ back to catalog

ORBCOMM FM19

NORAD 25415 · 1998-046C

PAYLOAD ACTIVE UNKNOWN

§ Identity

Operator
Country
ORB
Launch date
1998-08-02
Launch site
ERAS
Launch vehicle
Mass (kg)
RCS (m²)
0.52

Purposes: comms

External: N2YO · Heavens-Above · Gunter

§ Orbital elements

Epoch: 2026-09-10T02:30:40.788000Z

Period
100.03 min
Inclination
44.9929°
Eccentricity
0.0004915
Mean motion
14.39628647 rev/d
Perigee alt
756.2 km
Apogee alt
763.2 km
Semi-major
7,137.9 km
B*
2.5902e-4
RAAN
199.8717°
Arg perigee
354.3477°
Mean anomaly
121.4580°
Rev number
46,901

§ Raw data

ORBCOMM FM191 25415U 98046C   26253.10463875  .00000674  00000+0  25902-3 0  99932 25415  44.9929 199.8717 0004915 354.3477 121.4580 14.39628647469011

JSON: /api/v1/satellites/25415 · /tle

For live sub-satellite position, see the globe view (requires WebGL).

§ Visibility from observer

Set your observer location to see the next 7 days of passes ≥ 10°. The values pass through the URL so the page stays shareable.

No JS? Fill the form by hand. The geolocation button needs JavaScript.